GEFSMW_500_meanwind_132.txt.gz
Wind_Speed
16 16 15 14 13 13 14 17 18 20 22 22 22 21 20 19 18 17 16 14 13 13 12 11 10 9 8 7 6 5 5 4 3 3 3 2 2 1 1 1 2 3 3
15 14 14 13 12 12 13 15 18 20 22 22 22 21 21 20 19 17 16 15 14 14 13 12 11 10 9 8 7 6 5 5 4 3 3 2 2 2 2 2 2 3 4
14 13 12 11 9 11 13 13 16 20 21 21 22 22 21 20 19 18 17 16 15 15 14 13 12 10 9 8 8 7 6 5 4 3 2 2 2 2 2 3 3 4 4
13 11 11 10 9 10 12 13 17 19 20 20 21 22 22 20 19 19 18 17 16 16 16 14 13 11 10 9 8 8 7 6 5 4 3 3 2 2 3 4 4 5 5
11 10 9 8 7 8 11 14 17 19 20 20 20 22 22 21 20 20 19 17 17 17 16 15 14 13 11 10 9 8 7 6 5 5 4 4 4 4 4 5 5 6 6
9 8 7 5 5 6 9 12 15 17 19 20 21 22 22 21 20 19 18 18 17 17 16 15 14 13 12 10 9 8 7 7 6 6 5 5 5 6 6 6 6 7 7
9 7 5 4 4 5 8 11 13 16 18 20 20 21 21 21 20 19 19 18 18 17 16 15 14 13 12 11 10 9 8 8 8 8 7 7 7 8 8 8 8 8 9
8 6 4 3 4 6 9 11 13 16 19 21 21 21 20 20 20 19 19 18 18 17 17 16 15 14 13 12 11 10 9 9 9 9 9 9 9 9 9 10 10 11 11
7 5 3 2 4 6 9 11 13 15 18 20 21 21 21 20 19 19 19 19 18 18 17 17 16 15 14 13 12 11 11 11 11 11 10 11 11 11 12 12 13 13 14
7 6 4 2 3 5 7 10 12 14 15 18 19 20 20 19 19 19 19 19 19 19 18 18 17 16 15 14 13 12 12 12 13 13 13 13 14 14 15 15 16 16 17
8 7 5 3 3 4 7 10 11 12 13 15 17 18 19 19 19 19 18 18 19 19 18 18 17 17 16 15 15 15 15 15 15 15 16 17 17 18 18 19 19 19 20
9 8 6 5 5 5 6 8 10 10 12 13 15 17 18 18 18 18 18 18 18 19 19 18 18 18 18 17 17 18 18 18 18 19 19 20 20 21 22 22 22 23 23
10 8 7 6 7 7 8 9 10 11 12 13 14 15 16 17 17 18 18 17 18 18 19 18 18 19 20 20 21 21 21 22 22 22 23 24 24 25 25 25 26 26 27
11 9 9 8 8 9 9 10 11 11 11 12 14 14 15 16 17 17 18 18 19 19 19 20 20 21 22 23 23 23 24 24 25 26 26 27 27 28 28 29 29 29 30
13 12 11 11 10 10 11 12 12 13 13 13 14 15 16 16 17 17 18 19 20 20 20 21 22 23 24 24 25 25 26 27 28 29 30 30 30 31 31 31 32 32 32
14 14 13 13 13 12 12 13 15 15 15 15 16 16 17 17 17 18 18 19 21 22 23 24 25 26 27 27 27 28 29 30 31 32 32 33 33 34 35 35 35 35 35
16 16 16 16 16 16 16 16 16 17 18 18 18 18 18 19 19 20 21 21 23 24 25 26 27 28 29 30 30 31 31 32 33 34 35 35 36 36 36 37 37 38 38
17 18 19 19 18 18 17 18 18 19 20 20 20 21 21 21 22 22 23 23 24 25 27 28 29 30 31 32 33 33 33 34 34 35 36 37 38 38 38 39 39 39 39
18 19 20 20 19 19 20 20 20 20 21 22 22 23 24 24 24 25 26 27 27 28 28 29 30 31 32 33 34 34 35 35 36 36 37 38 39 40 40 40 40 40 41
21 20 21 21 21 21 22 22 22 23 23 24 25 26 26 26 26 27 28 29 30 30 30 31 32 32 33 34 35 35 36 37 38 39 40 40 41 41 42 43 43 43 43
22 22 22 22 22 22 22 23 24 24 25 27 27 27 27 27 28 29 29 30 31 32 32 32 33 33 33 34 35 36 37 38 39 41 42 43 43 44 45 45 45 46 46
22 23 23 24 24 24 24 24 24 25 27 28 28 28 28 28 29 30 30 31 32 32 32 33 34 35 36 36 38 39 39 40 41 42 43 45 46 46 47 48 48 48 49
24 24 24 25 26 25 25 25 26 26 27 28 28 29 30 30 31 32 33 33 34 34 34 35 36 37 38 39 39 40 41 43 44 45 46 46 47 48 49 50 51 51 51
25 26 27 27 27 26 25 25 26 27 27 27 28 30 31 32 33 34 34 35 35 36 37 37 38 39 40 41 41 42 44 44 45 46 47 49 50 50 51 52 53 53 53
24 25 26 27 27 25 24 24 25 26 26 27 29 30 31 32 33 34 34 36 35 36 37 38 40 41 41 42 44 44 45 46 47 47 49 50 51 52 52 53 54 54 54
22 23 23 24 25 25 24 24 25 26 27 28 30 31 32 33 33 34 34 35 37 37 37 38 39 41 42 43 45 46 46 47 48 49 50 51 52 52 53 53 53 54 55

GEFSMW_500_meanwind_138.txt.gz
Wind_Speed
16 17 18 18 17 18 18 18 20 21 22 24 25 25 24 22 21 20 19 18 16 14 13 12 11 11 10 9 8 8 7 6 6 6 5 5 4 4 4 3 3 2 3
16 17 18 17 16 17 17 18 19 22 22 23 25 26 25 24 23 21 20 19 17 15 14 13 12 12 11 10 9 9 8 7 6 6 6 5 4 4 3 3 3 3 4
16 17 16 15 14 15 16 17 18 19 22 24 25 27 26 25 23 22 22 20 18 17 16 14 13 13 12 11 10 9 9 8 7 7 6 5 5 4 4 4 4 4 4
14 13 13 12 12 12 14 15 17 19 21 22 25 26 26 24 23 23 22 21 19 18 17 15 15 14 13 12 12 11 9 9 8 7 7 6 5 5 5 4 5 5 6
11 11 10 10 11 11 11 13 16 18 19 21 23 25 25 25 24 23 22 21 19 18 17 16 15 14 13 13 12 11 10 10 9 8 7 7 6 6 6 5 6 6 7
11 10 8 8 9 9 10 12 14 16 18 21 24 25 24 24 24 23 22 20 20 19 18 16 15 14 14 13 13 12 11 10 10 9 8 8 7 7 7 7 7 7 8
10 9 8 8 7 8 9 11 14 15 18 20 23 24 24 23 23 22 21 20 20 20 19 17 16 15 15 14 14 13 11 10 10 10 9 9 8 8 9 9 9 9 9
9 8 7 7 7 7 8 11 12 15 17 19 22 23 22 22 21 21 21 20 19 19 19 17 17 16 15 15 14 14 12 11 11 10 10 10 10 10 11 11 11 11 11
7 7 7 6 5 6 7 8 9 13 15 18 21 22 21 21 20 20 19 20 19 19 18 17 17 17 16 16 15 14 13 13 12 12 11 11 12 12 12 13 14 14 14
7 7 6 5 4 4 6 7 8 11 13 15 18 20 20 21 20 19 18 19 19 19 18 17 17 17 17 16 16 15 15 14 14 14 14 14 14 14 15 15 16 16 17
8 7 6 6 5 3 4 6 7 9 12 13 15 17 18 19 20 19 19 19 18 18 17 17 17 18 18 17 17 17 17 16 16 16 16 17 17 17 18 18 19 19 20
7 7 6 6 5 3 4 6 8 9 11 12 14 15 17 18 19 19 18 19 19 18 18 17 17 18 18 19 18 18 18 18 18 18 19 19 20 20 21 21 22 23 24
8 8 6 6 5 4 4 6 7 9 10 11 12 14 15 17 17 18 18 18 19 18 18 19 19 19 20 21 21 20 20 20 20 21 22 22 23 24 24 24 25 26 27
9 9 8 7 6 6 6 6 7 8 9 10 11 12 14 15 16 17 18 18 18 19 19 20 20 21 21 21 22 23 23 23 24 24 25 25 26 26 26 27 27 28 29
10 9 9 9 8 8 8 8 9 9 10 11 12 13 14 16 16 17 18 18 19 19 20 21 21 21 22 23 24 25 26 27 27 28 28 28 28 29 29 30 31 31 32
11 10 11 11 11 11 10 10 10 10 11 12 13 14 15 17 18 18 18 18 19 20 20 21 22 22 23 24 25 26 27 29 29 30 31 31 31 32 33 34 34 34 35
14 13 12 12 13 13 13 12 12 12 13 13 15 16 17 17 18 19 19 19 20 21 22 22 23 23 24 25 26 27 28 29 31 31 32 33 34 35 36 37 37 38 38
17 16 15 14 14 14 14 14 14 14 15 15 16 17 18 19 20 20 21 22 23 23 24 25 26 26 26 28 29 30 31 32 33 34 34 35 36 36 38 39 39 40 40
19 19 18 17 17 16 16 16 16 16 16 17 18 19 19 21 22 23 23 24 25 26 27 27 28 28 29 31 32 33 33 34 35 36 36 37 37 39 40 41 41 41 42
22 21 21 20 19 18 18 18 18 18 18 19 20 21 22 23 24 25 26 26 27 28 29 30 31 32 33 34 35 35 36 36 37 39 39 40 41 42 43 43 44 44 45
23 23 23 22 21 20 20 19 20 20 20 21 22 23 23 25 27 27 27 28 29 30 31 32 33 34 35 36 37 38 39 40 40 41 42 43 43 44 45 46 47 47 47
25 24 24 24 23 23 23 22 22 22 23 23 24 24 25 26 27 29 29 30 31 32 33 34 35 36 38 39 40 41 42 43 43 43 44 45 45 46 47 48 48 48 49
25 25 26 25 24 24 25 24 24 25 25 26 26 26 27 28 28 30 31 32 33 34 34 35 36 38 40 41 42 43 44 44 44 45 46 47 47 48 49 49 49 50 50
25 25 25 25 25 25 25 25 26 27 26 26 27 28 29 29 30 30 31 33 34 35 37 38 38 38 40 41 43 45 45 47 48 48 48 48 50 50 50 50 50 51 52
24 25 25 25 25 25 25 26 26 27 27 28 29 29 29 30 31 32 32 32 32 34 35 37 38 39 40 41 43 44 45 46 47 48 48 49 49 50 50 50 52 53 53
25 25 25 26 26 26 27 28 28 29 29 29 29 29 29 29 30 31 31 31 33 34 35 36 38 39 40 41 42 42 43 44 46 47 47 48 49 49 50 51 52 53 54

GEFSMW_500_meanwind_144.txt.gz
Wind_Speed
18 20 18 18 19 19 19 18 18 17 17 17 17 17 18 19 19 19 18 18 16 15 14 12 11 11 10 9 8 8 7 6 5 5 4 3 3 2 2 2 2 2 2
19 19 17 19 18 19 19 19 18 17 17 17 17 18 18 19 20 20 19 18 17 16 14 13 12 11 11 10 9 9 8 7 7 6 5 4 3 3 3 2 1 2 2
18 18 18 17 16 17 17 17 18 18 18 18 17 17 18 19 20 20 20 19 18 17 15 14 13 12 11 11 10 9 9 8 7 7 6 5 4 3 3 2 2 2 2
17 16 17 16 16 16 16 15 17 17 17 18 17 18 20 20 20 21 21 20 19 18 16 15 15 14 12 12 11 11 10 10 9 8 7 6 5 4 3 3 3 3 3
16 17 17 16 15 15 14 14 17 17 17 18 18 19 20 20 21 21 20 20 19 18 18 17 16 15 14 13 13 12 11 11 10 9 8 7 6 5 5 4 4 4 4
16 16 15 15 13 12 13 13 15 16 16 18 19 18 19 20 20 21 20 20 19 19 19 18 17 16 15 14 13 13 12 11 10 10 9 8 7 6 5 5 5 6 6
15 15 14 12 10 10 11 11 12 13 14 16 18 18 18 20 20 20 20 20 20 19 19 19 18 17 16 15 14 13 13 12 11 11 10 8 8 7 6 7 7 8 8
14 13 12 11 9 9 9 9 9 10 12 15 16 17 17 18 19 20 20 20 20 20 20 19 18 18 17 16 15 14 13 12 12 12 11 10 9 8 8 8 9 10 10
13 11 10 9 9 9 8 7 8 9 11 13 15 16 17 18 19 19 19 19 19 19 19 19 18 18 17 16 15 15 14 13 13 13 12 11 11 10 10 10 11 12 12
12 10 8 7 7 8 7 7 6 8 10 12 13 15 17 18 18 19 19 19 19 19 19 19 18 17 17 16 16 16 15 14 14 14 14 13 12 12 13 13 14 14 15
12 10 7 7 7 6 6 6 6 7 9 10 11 13 15 16 17 18 19 18 18 18 18 19 19 18 17 16 17 17 16 16 15 15 15 15 15 15 16 16 17 17 18
11 10 8 7 7 6 5 5 5 5 7 8 10 11 13 14 15 16 17 17 18 18 18 18 18 18 17 17 17 17 17 17 17 17 17 18 18 19 19 19 19 20 21
13 11 9 8 8 7 5 4 4 4 5 5 7 10 11 12 13 15 16 17 17 18 18 17 17 17 17 17 17 18 19 18 19 19 20 21 22 22 22 22 22 23 24
14 13 11 10 8 7 6 4 3 3 4 5 7 10 11 12 13 14 15 17 17 18 18 17 17 16 17 18 18 19 20 20 21 22 23 24 24 24 24 25 26 26 27
14 14 13 11 9 8 7 5 4 3 3 5 6 8 10 11 11 12 13 16 16 16 17 17 17 18 18 19 20 21 21 22 23 23 24 25 26 26 27 27 28 30 30
15 14 13 12 11 10 8 7 6 6 6 5 7 8 9 11 12 12 13 15 16 17 17 17 18 19 19 20 21 21 21 22 24 25 26 27 28 29 29 30 31 32 33
17 16 14 13 12 12 11 10 9 9 9 9 9 10 11 12 13 14 14 15 16 17 17 17 18 18 19 20 21 22 23 24 25 26 28 29 30 31 32 33 34 35 36
18 17 16 15 14 13 13 13 12 11 11 12 12 11 12 13 15 16 16 17 17 18 18 18 19 20 21 22 23 24 25 26 27 28 29 31 32 33 34 35 36 37 38
20 19 18 17 16 16 16 15 15 14 14 14 14 14 14 15 16 17 17 18 19 20 21 22 22 23 23 24 25 26 27 28 30 31 32 33 34 35 36 37 38 39 40
22 21 20 19 18 18 17 17 17 16 16 16 16 16 17 17 18 19 18 20 21 22 23 24 25 25 26 27 28 29 30 30 32 33 34 36 36 38 39 40 41 41 42
23 23 22 21 20 20 19 19 18 18 18 17 18 18 19 19 19 20 21 21 22 23 25 26 26 27 28 29 30 31 32 34 35 36 37 38 39 39 40 42 43 44 45
24 24 24 23 22 21 21 20 20 20 20 20 20 20 20 20 21 21 21 22 23 24 25 26 28 29 30 31 32 34 35 36 37 38 39 40 40 40 42 44 45 47 48
26 25 25 24 24 24 23 22 22 22 22 22 22 21 22 23 23 23 24 25 26 26 28 29 30 31 32 33 34 36 37 38 39 40 41 41 42 42 44 46 46 48 48
25 25 25 25 25 25 25 24 23 23 24 24 24 24 24 24 25 25 26 28 28 29 29 30 31 32 33 35 35 36 37 38 40 40 41 42 43 43 44 45 45 47 48
24 24 24 24 25 25 25 25 24 25 25 26 27 27 26 26 27 27 27 28 29 30 30 31 32 33 34 35 36 37 37 38 40 41 42 43 43 45 45 46 46 46 47
21 21 22 22 23 24 25 25 24 25 25 25 26 27 27 28 29 29 29 30 30 30 30 32 32 33 35 37 37 38 39 41 41 42 43 44 44 45 46 46 47 47 48

GEFSMW_500_meanwind_150.txt.gz
Wind_Speed
14 12 12 12 12 12 11 12 13 13 13 13 14 14 15 16 16 16 16 16 16 15 14 13 11 10 10 9 9 8 7 7 7 7 7 6 5 4 4 4 4 4 3
14 12 12 12 12 13 13 13 13 14 14 14 16 16 16 17 16 17 17 17 17 17 16 14 13 12 11 11 10 9 9 8 8 8 8 8 6 6 6 6 5 5 4
13 13 12 12 12 13 13 12 12 13 14 15 16 17 16 16 16 16 17 18 18 18 17 16 15 14 12 12 11 11 10 10 9 9 9 9 8 7 6 6 6 6 6
15 12 11 12 12 13 12 12 12 13 14 15 16 17 17 17 18 18 18 19 19 19 18 17 16 15 14 13 13 12 12 11 11 10 10 10 9 8 7 7 7 7 7
13 12 12 13 13 13 13 13 13 14 15 16 17 17 17 19 19 18 17 19 20 19 19 18 18 17 16 15 14 13 13 13 12 11 11 11 10 9 9 8 7 7 7
13 12 12 13 12 12 13 13 14 14 15 15 15 17 18 19 20 19 19 20 21 20 20 19 19 18 17 16 15 14 14 14 13 12 12 12 11 11 10 9 9 8 8
10 11 11 12 11 11 12 12 12 13 14 15 15 17 19 19 19 20 20 20 21 21 21 20 20 19 18 17 16 15 15 15 14 14 13 13 12 12 11 10 9 8 8
10 10 9 9 9 10 10 10 11 11 13 15 16 17 20 20 19 21 21 21 21 21 22 22 22 20 19 18 17 17 16 16 15 15 15 14 14 13 12 11 10 10 9
10 8 7 8 8 9 9 9 10 11 12 14 15 17 19 20 19 21 22 21 22 21 22 22 22 21 20 19 18 18 17 16 16 16 16 16 15 14 14 13 12 11 11
7 7 6 7 7 7 7 7 8 9 11 13 15 16 17 19 20 21 22 21 20 21 22 23 22 21 20 19 19 18 18 18 17 17 17 17 16 16 16 16 15 14 14
7 6 6 6 7 6 6 7 7 7 8 10 13 14 16 17 19 20 20 21 20 21 21 22 22 21 20 20 20 20 19 19 19 18 18 19 18 18 18 18 17 16 17
6 6 6 7 7 6 5 6 6 6 7 8 10 12 14 16 17 19 19 20 21 21 21 21 21 21 20 20 20 20 20 19 19 19 19 20 20 19 20 20 19 19 19
8 8 7 6 7 5 4 5 6 6 6 7 10 12 13 14 16 18 19 21 21 21 21 22 21 21 20 20 20 20 20 20 20 20 20 20 21 21 22 22 22 22 22
8 9 8 6 5 5 4 4 4 6 6 7 8 11 13 15 17 18 18 20 21 21 21 22 22 21 21 20 20 20 20 20 21 21 22 22 23 23 24 24 24 25 25
8 8 7 7 7 5 4 4 3 4 5 6 7 9 12 14 15 17 18 18 20 20 21 22 22 21 20 19 20 21 21 21 22 23 24 25 25 26 26 26 27 27 28
10 9 8 8 8 8 6 5 4 4 4 6 7 8 10 12 14 15 17 18 18 18 20 20 21 20 20 20 20 20 21 23 24 25 25 26 26 27 28 28 29 30 30
12 11 10 10 10 10 8 7 7 6 6 7 8 9 10 12 13 15 16 16 17 18 18 19 20 20 21 22 22 22 23 24 24 25 25 26 27 28 28 30 31 32 32
14 13 12 10 10 10 10 10 10 9 8 8 9 10 10 11 12 13 14 16 17 17 18 19 20 21 22 23 23 24 24 25 25 25 26 27 28 28 29 31 32 33 34
15 15 14 12 11 11 11 11 12 11 11 10 10 11 11 12 13 15 16 16 17 18 19 20 21 22 23 24 24 25 26 26 26 27 28 28 29 30 32 32 33 34 35
17 16 14 14 14 14 13 13 13 13 13 13 12 12 12 12 14 15 17 17 17 18 20 22 23 24 25 26 26 27 28 28 29 30 31 31 32 32 33 34 35 36 37
17 16 15 15 15 15 15 15 15 14 14 14 14 14 14 15 16 17 18 18 19 20 22 24 25 25 27 28 28 29 29 30 31 32 32 33 33 34 34 35 36 37 38
17 17 16 16 17 17 17 16 16 16 16 16 16 16 16 17 18 18 19 19 20 21 22 23 23 24 26 27 28 29 30 31 32 33 34 35 35 36 37 38 38 39 40
18 19 19 19 18 19 19 19 18 18 18 18 18 18 18 18 19 19 19 20 20 20 21 22 23 24 25 26 27 28 31 33 34 34 35 35 36 38 39 40 41 41 43
20 19 19 19 19 19 19 20 19 19 20 20 20 20 20 21 20 20 20 21 21 21 21 22 23 25 26 26 28 30 31 32 33 35 35 36 38 39 40 41 42 43 44
18 18 18 18 19 19 19 19 20 20 20 21 21 21 21 22 21 21 21 21 22 23 23 23 24 25 26 28 29 30 30 32 33 34 35 37 38 39 40 41 42 43 44
16 17 17 18 18 18 19 19 19 20 21 21 22 23 23 23 23 23 23 24 24 24 24 24 25 26 27 28 30 31 32 34 35 35 37 38 39 41 42 43 43 43 44

GEFSMW_500_meanwind_156.txt.gz
Wind_Speed
13 14 14 12 13 12 13 14 14 14 15 16 17 16 15 15 15 15 14 14 13 14 14 13 12 11 10 9 9 8 8 8 7 7 6 6 5 4 4 4 4 4 4
15 15 14 14 14 14 13 14 14 15 16 16 18 19 18 17 17 16 15 14 14 15 15 15 14 13 12 11 10 10 9 9 8 8 8 8 7 6 6 5 5 5 5
15 16 15 15 15 15 15 15 15 16 16 17 18 19 19 17 16 16 16 15 15 16 16 16 16 15 14 13 12 11 11 10 9 9 9 9 8 7 7 7 7 7 7
15 16 16 16 15 15 15 15 15 15 16 17 18 18 19 20 18 18 18 17 16 17 17 18 17 17 16 15 14 13 12 12 11 11 10 10 9 9 9 9 9 8 8
15 15 16 17 17 16 16 15 15 15 16 18 18 18 18 20 20 21 19 18 17 18 19 20 19 18 18 17 16 16 15 14 13 13 12 11 11 11 10 10 10 10 9
15 16 17 17 17 17 17 16 16 16 16 17 17 17 17 18 20 21 21 20 18 18 20 21 21 20 20 19 18 17 16 15 15 14 14 13 13 12 11 11 11 11 10
16 16 17 17 17 17 16 16 16 17 18 17 18 19 19 19 20 21 22 21 20 20 20 22 22 21 21 20 20 19 18 17 17 16 15 15 14 13 13 12 12 12 12
17 16 16 17 16 15 15 14 15 15 17 17 17 19 20 21 21 21 22 22 22 21 21 22 22 22 22 22 21 20 20 18 18 17 17 16 16 15 14 14 13 14 14
16 15 16 16 14 13 13 13 13 13 14 16 16 18 19 19 21 21 21 22 23 22 23 23 23 22 22 22 21 20 20 20 19 18 17 17 17 16 16 15 15 15 15
12 12 13 13 13 13 13 12 12 11 12 14 15 16 17 18 19 21 21 23 23 23 23 24 24 23 22 22 22 21 21 21 20 19 19 19 19 18 17 17 17 17 17
11 10 11 11 11 11 11 11 12 12 11 12 14 15 17 17 19 21 21 22 22 22 22 22 23 23 24 23 23 22 22 22 21 21 20 20 20 20 19 19 18 18 19
9 9 10 9 9 10 10 9 11 11 11 12 13 15 16 17 18 20 21 21 22 22 21 21 21 22 23 24 23 23 22 22 22 23 23 22 21 21 21 20 19 20 20
9 9 10 9 9 9 8 8 9 9 10 11 12 13 14 15 17 18 19 20 21 22 22 22 22 22 23 23 23 23 23 23 23 23 23 22 22 22 22 21 21 22 23
9 10 9 9 9 9 9 8 8 8 9 9 10 11 12 13 15 17 18 19 20 21 22 22 23 22 22 23 23 23 23 23 23 23 22 23 23 24 24 24 24 25 25
10 9 9 9 9 8 8 8 7 8 8 8 8 9 11 11 14 15 17 18 19 20 22 22 22 22 23 24 24 23 23 23 23 23 23 23 24 25 26 27 27 27 28
10 9 9 10 9 8 8 8 8 8 8 8 9 10 10 12 14 15 16 17 18 19 21 22 22 23 24 25 24 24 24 24 25 24 25 25 26 27 28 29 30 30 31
11 11 11 11 11 10 10 10 9 8 9 8 8 9 10 11 12 13 14 15 18 19 21 22 23 22 24 25 24 25 25 26 26 26 26 26 27 29 30 31 31 31 32
14 13 12 12 12 12 12 11 10 9 8 8 8 8 9 10 11 11 13 14 15 17 19 20 21 22 22 23 25 26 26 27 28 28 28 28 29 31 32 32 32 33 34
14 14 13 13 13 13 12 11 10 10 10 10 9 9 9 10 10 11 12 13 14 16 18 19 20 21 22 22 24 25 26 27 28 29 29 30 31 32 33 33 34 35 35
15 15 15 14 14 14 13 12 11 11 11 12 11 11 12 12 12 12 13 14 15 16 18 19 20 21 22 23 25 26 26 28 29 30 31 31 32 33 34 34 35 36 37
16 16 15 15 14 13 13 13 13 13 12 13 13 14 14 14 14 14 15 15 17 18 19 20 21 22 24 26 27 27 28 30 31 32 32 33 33 34 34 35 36 37 39
17 16 16 16 16 15 14 14 14 15 15 15 15 15 15 15 16 16 16 17 17 18 19 21 23 24 25 26 27 28 29 29 29 30 31 32 33 34 35 36 37 39 40
19 19 18 17 17 17 16 16 16 16 17 17 17 17 17 17 17 17 18 18 18 19 20 21 22 23 24 25 26 26 27 28 29 30 31 32 33 34 36 38 39 40 42
19 18 18 17 17 17 17 17 18 18 17 18 18 18 18 18 18 18 19 19 19 20 21 21 21 23 24 24 25 26 27 27 29 30 32 33 35 36 37 39 40 41 42
19 19 18 17 17 17 17 17 18 17 17 18 19 18 18 18 19 20 21 21 22 22 22 22 23 23 24 26 27 28 29 30 31 32 34 35 36 37 38 39 40 41 43
18 18 18 18 18 18 18 17 17 18 18 18 18 19 19 19 20 21 21 21 22 22 23 24 24 25 26 27 28 30 31 32 33 33 34 35 36 37 39 40 42 44 45

GEFSMW_500_meanwind_162.txt.gz
Wind_Speed
14 13 11 11 10 9 8 9 10 11 11 11 13 14 15 16 17 17 16 16 14 14 14 14 13 13 12 11 10 9 8 7 7 7 6 6 5 5 5 4 4 4 4
14 14 13 13 12 11 11 11 12 13 13 13 14 14 15 16 16 17 17 17 16 15 15 15 15 14 13 12 11 10 10 9 8 8 8 7 7 7 6 6 6 6 5
15 15 14 14 13 13 13 14 14 13 14 14 15 16 15 16 16 17 17 18 17 16 16 17 16 15 15 13 12 11 11 11 10 10 9 9 9 8 8 8 7 7 7
16 15 15 15 14 14 15 15 14 13 14 15 16 16 15 16 18 18 18 18 17 17 17 18 18 17 16 15 14 13 12 12 12 11 11 11 10 10 9 9 9 9 9
16 16 16 15 15 15 15 14 14 14 15 15 16 16 17 17 18 19 19 18 18 18 18 18 19 18 18 17 16 15 14 13 13 13 12 12 12 11 11 10 10 10 10
15 15 14 15 15 15 15 15 15 15 16 17 16 16 17 17 19 20 21 20 19 19 19 19 20 20 19 19 18 18 16 15 14 14 14 13 13 13 12 12 11 12 12
15 14 15 15 15 15 15 15 16 16 17 17 17 16 17 17 19 20 21 21 20 20 20 19 20 20 20 20 20 19 18 17 16 16 16 16 15 15 14 14 14 13 13
14 15 15 15 14 15 15 15 17 17 16 15 15 15 17 17 18 19 21 22 22 21 20 21 21 21 21 20 20 21 20 19 18 18 17 17 17 17 16 16 16 16 15
14 14 14 14 14 15 15 15 16 16 15 14 14 15 17 18 19 20 21 22 22 22 21 21 22 23 22 22 21 21 21 20 19 19 19 19 19 18 18 18 17 17 17
14 14 14 14 14 13 14 15 15 15 14 14 15 14 16 18 19 20 20 21 22 22 22 22 21 22 22 22 22 21 21 21 21 20 20 20 20 19 19 19 19 19 19
14 14 13 13 12 13 13 14 15 15 14 15 15 14 15 16 17 18 19 21 22 22 22 21 21 21 21 22 22 22 22 22 22 22 22 21 21 21 22 22 22 22 21
12 12 12 12 12 12 12 13 13 13 14 15 16 16 15 16 17 17 18 20 20 20 21 21 21 21 22 22 22 22 22 22 23 23 22 23 23 23 23 23 24 23 22
12 11 11 12 12 12 12 12 13 13 14 14 15 16 16 17 17 18 19 19 20 20 21 20 21 22 22 22 22 23 23 23 23 24 24 23 23 24 24 23 24 24 24
12 12 11 11 11 11 11 11 12 12 11 13 14 15 15 15 16 16 17 18 18 19 20 20 20 21 22 22 23 24 24 24 24 24 25 25 24 25 24 24 25 25 25
13 13 13 13 12 11 10 10 10 10 11 12 13 14 14 14 15 15 15 16 17 17 19 20 21 21 21 23 23 24 24 24 24 26 26 26 25 25 26 26 27 27 27
13 13 13 13 13 12 11 11 10 10 10 11 12 12 13 13 14 14 14 15 16 17 18 19 19 20 20 21 23 23 24 24 25 26 27 27 26 27 27 27 27 28 29
14 14 14 13 12 12 12 12 11 11 11 11 10 11 11 12 13 13 14 14 15 16 17 18 19 19 20 20 22 23 24 25 25 26 27 28 29 28 29 30 29 29 29
14 14 14 13 13 12 12 13 13 12 12 12 12 12 12 12 12 13 13 13 14 15 16 17 18 19 19 19 21 21 23 24 26 27 27 29 30 30 30 30 30 31 32
15 15 14 14 14 13 13 13 14 14 13 13 12 12 13 12 12 12 12 13 13 14 15 16 18 19 20 20 21 22 23 25 26 28 29 29 28 29 30 31 32 33 34
16 15 15 14 14 14 13 13 13 13 13 13 12 12 12 12 12 12 12 13 13 13 14 16 17 18 20 21 22 23 24 25 27 27 28 28 29 30 31 33 34 34 35
16 17 16 16 17 16 15 14 14 14 13 13 13 13 13 13 13 13 13 14 14 14 15 15 16 17 19 20 21 22 23 25 26 28 28 29 29 31 32 32 33 34 35
18 17 17 17 17 17 16 15 15 15 15 14 15 15 14 14 15 15 15 15 16 16 16 17 18 19 20 21 22 23 24 25 27 28 29 30 30 31 33 33 33 34 35
18 18 18 18 18 17 17 17 16 15 15 16 16 16 16 16 16 16 17 17 17 18 18 19 19 20 21 22 23 24 25 26 27 28 29 30 30 31 32 32 33 34 36
19 20 20 19 19 19 18 18 17 17 17 16 16 16 17 17 17 17 18 18 19 19 20 21 22 23 23 23 23 23 25 26 27 29 29 29 30 31 31 32 34 34 35
21 21 21 21 20 19 19 19 18 17 17 17 17 17 17 18 18 19 19 19 19 19 20 21 22 23 23 23 23 24 25 26 27 27 28 30 31 31 32 33 33 35 36
22 21 21 21 20 19 19 19 18 18 18 17 17 18 18 19 19 20 20 20 20 20 21 22 22 22 23 24 24 25 26 27 28 29 30 30 31 32 34 35 36 38 39

GEFSMW_500_meanwind_168.txt.gz
Wind_Speed
13 12 12 12 12 11 11 10 9 9 9 9 9 9 9 10 11 11 12 13 13 13 12 12 12 11 11 11 10 9 8 7 6 6 5 4 4 4 4 3 3 3 3
15 13 13 13 13 13 12 11 11 11 10 10 10 10 10 10 10 11 13 14 14 15 14 13 13 12 12 12 12 11 10 9 8 7 7 7 6 6 5 4 4 4 4
15 13 13 13 13 13 13 13 12 12 11 11 11 11 11 11 10 11 12 14 15 15 15 15 14 13 13 13 13 13 12 11 10 10 9 9 8 7 7 6 6 5 5
16 14 13 14 14 14 14 12 13 13 13 12 12 11 12 12 12 12 12 14 14 14 15 16 16 15 14 14 14 14 13 13 12 11 11 10 10 10 8 8 7 6 6
16 15 14 14 14 14 13 13 14 14 14 14 13 13 13 12 12 12 13 14 15 15 15 17 17 17 16 16 16 15 15 14 13 13 12 12 12 11 11 10 9 9 8
16 15 14 14 14 13 13 14 14 15 15 14 14 14 14 14 13 13 14 14 15 15 15 16 17 18 18 17 17 17 16 15 15 15 15 14 13 13 12 12 12 11 10
16 15 14 14 14 14 14 15 15 15 15 15 14 14 14 14 14 14 14 15 15 16 16 16 17 18 19 19 18 18 18 17 16 16 16 16 15 15 14 14 14 13 13
18 17 15 14 15 15 15 16 16 16 16 15 15 14 14 14 14 14 15 15 16 16 17 17 17 18 19 20 20 20 19 19 18 18 18 18 18 17 16 16 16 15 15
18 16 15 15 15 15 16 16 16 16 16 15 15 14 14 14 14 15 16 15 16 16 17 17 18 18 19 20 21 21 21 21 21 20 20 19 20 19 18 19 18 18 17
16 15 15 16 16 16 16 17 17 16 16 16 15 15 15 15 15 16 16 16 16 17 17 18 19 19 19 21 21 21 22 22 22 21 20 20 20 20 20 20 20 20 20
17 16 16 16 16 16 16 16 16 16 16 15 15 15 15 14 15 15 15 16 15 15 17 18 19 19 19 20 21 21 22 22 22 21 21 21 21 22 22 22 22 21 22
17 16 16 16 16 15 16 16 16 16 16 15 15 15 15 15 15 16 15 15 16 17 17 17 18 18 19 20 20 20 21 21 22 22 22 22 22 22 23 23 23 24 24
16 16 15 15 15 15 15 15 15 16 16 16 16 16 15 15 15 16 16 16 16 16 17 17 18 19 20 20 21 21 21 21 22 22 23 24 24 24 24 24 24 25 25
15 15 14 15 15 14 14 15 15 16 16 16 16 15 15 15 16 16 16 16 17 17 17 17 18 19 19 20 21 22 21 22 22 23 24 24 24 25 25 26 26 27 27
15 15 15 15 15 15 15 15 15 15 15 15 16 15 15 15 16 16 16 17 17 17 18 18 18 18 19 19 20 20 21 21 22 23 24 25 25 26 27 27 28 28 28
15 15 15 15 15 15 14 14 14 14 14 14 14 14 14 14 15 16 17 17 17 17 17 18 18 19 19 20 20 20 21 22 22 23 24 25 26 27 27 28 29 30 31
16 16 16 16 15 15 15 14 14 14 13 12 13 13 14 14 14 15 15 15 15 16 16 16 17 18 19 19 20 20 22 22 22 23 24 25 25 26 28 29 30 32 32
18 17 17 16 15 15 14 14 14 13 12 12 12 13 13 13 14 14 15 15 15 15 15 16 17 17 17 18 20 21 21 21 22 23 25 25 26 27 28 29 30 32 32
19 18 17 16 15 15 15 14 14 14 14 14 13 14 14 14 14 15 15 15 15 15 15 15 16 16 16 17 19 20 20 21 22 24 24 26 27 28 29 29 30 32 33
19 18 17 17 16 15 15 15 14 14 14 15 15 14 14 14 14 15 15 15 15 15 15 15 15 15 16 17 18 19 20 21 23 24 25 26 27 29 30 30 31 32 32
20 19 18 17 17 16 16 15 15 15 15 15 15 15 15 15 15 15 15 16 16 16 15 16 16 16 17 18 19 20 21 23 24 25 26 27 28 29 31 31 31 32 32
20 20 19 18 18 17 17 17 17 16 16 16 16 16 16 15 15 15 16 16 16 15 16 16 16 17 18 18 19 20 22 23 24 25 26 27 28 29 30 30 31 31 30
21 20 20 19 19 19 19 18 18 17 17 17 17 17 16 16 16 16 16 16 16 16 17 17 18 18 18 19 20 20 21 22 23 24 24 25 26 26 27 29 30 30 30
21 21 20 20 19 19 19 19 19 18 18 17 17 17 17 17 17 18 17 17 17 17 18 18 19 19 19 20 21 21 22 22 23 24 25 26 27 27 28 29 29 30 32
22 21 20 20 20 20 19 19 19 19 18 18 18 18 18 18 18 18 18 18 18 19 19 20 20 20 20 21 22 23 23 24 25 26 27 27 28 28 29 31 32 33 34
22 22 21 20 20 21 21 21 20 19 19 19 18 19 19 19 18 18 18 18 18 18 19 20 20 21 22 23 24 25 25 26 26 27 28 29 30 31 33 34 35 36 37

GEFSMW_500_meanwind_174.txt.gz
Wind_Speed
11 10 9 8 7 6 5 4 4 5 5 5 5 5 5 6 6 7 8 8 9 10 10 9 9 8 8 8 8 7 6 6 6 5 5 4 4 4 4 4 4 4 4
12 11 10 9 8 6 5 5 6 6 5 6 6 6 6 6 6 6 8 9 9 10 11 11 11 10 10 10 10 9 9 8 8 7 7 6 6 6 5 5 6 6 5
11 11 11 11 10 7 6 6 7 7 7 7 8 7 7 7 7 7 8 9 9 10 10 11 12 12 11 11 12 12 11 11 10 10 9 9 8 8 7 7 7 7 7
13 12 12 13 12 10 8 7 7 8 8 8 8 8 8 8 7 7 8 9 10 11 11 10 12 12 13 13 13 13 13 13 12 11 11 11 10 10 9 8 8 8 9
14 14 13 13 12 11 9 9 9 9 9 9 9 9 9 8 8 8 9 9 10 11 11 11 11 13 13 13 14 15 15 14 13 13 13 12 12 12 11 10 10 10 10
16 15 14 14 13 11 10 10 9 10 10 10 9 9 9 9 9 9 9 10 10 11 12 12 13 13 14 13 14 15 15 16 15 15 15 14 14 14 14 13 13 13 13
16 15 14 14 13 12 11 11 11 11 11 11 10 9 10 9 10 11 10 10 11 11 11 13 13 14 14 14 15 15 16 17 17 17 17 16 16 16 15 16 16 15 15
15 14 14 13 13 12 12 12 12 12 12 12 12 11 10 10 10 11 11 10 11 12 12 13 13 14 14 14 15 16 17 18 18 18 18 18 17 17 17 17 17 18 17
14 12 13 13 13 13 13 12 12 12 11 11 12 11 10 10 11 11 11 11 12 13 14 14 14 14 15 16 16 17 18 18 18 19 19 19 19 19 19 19 19 20 19
13 13 12 11 13 13 12 12 12 11 12 12 12 12 11 10 10 11 12 12 13 13 14 15 15 15 16 16 16 17 18 18 19 20 21 20 20 20 21 20 21 21 21
14 12 11 11 12 12 12 11 12 12 12 12 13 12 12 11 11 11 13 14 14 14 15 15 16 16 16 16 17 18 19 19 19 20 22 22 22 22 22 22 22 22 23
14 13 11 10 12 12 11 11 12 12 12 13 13 12 12 12 12 12 13 14 14 15 16 16 16 16 17 17 17 18 19 19 20 20 21 22 23 23 23 23 23 23 24
14 13 11 10 12 12 11 11 12 12 12 12 12 12 13 13 13 13 12 12 13 14 15 15 16 17 17 18 18 18 19 20 20 21 22 23 23 23 24 24 25 25 26
12 11 10 10 11 10 10 10 11 11 12 12 12 12 13 12 12 12 12 12 13 13 13 14 15 16 17 17 17 18 19 20 20 21 21 22 23 23 24 25 26 26 26
9 9 9 10 10 11 11 11 11 11 11 11 11 11 11 12 12 12 12 12 12 13 13 14 15 16 16 16 17 17 18 19 20 21 22 22 23 24 25 25 25 26 26
9 9 10 10 11 10 10 11 11 11 12 11 11 11 12 12 12 12 12 12 13 13 14 15 16 16 16 16 17 18 19 20 21 21 22 23 23 24 24 25 25 26 27
11 11 11 11 10 11 11 11 12 12 12 11 11 11 11 11 12 12 12 13 13 14 14 15 16 16 17 17 17 17 18 19 19 21 22 23 24 24 25 25 26 26 27
13 12 12 11 11 12 11 12 12 12 12 12 11 11 12 12 12 12 12 12 13 14 14 15 16 17 17 18 18 18 18 18 19 20 21 23 24 25 25 26 26 27 28
14 13 13 13 13 13 13 13 12 12 13 13 12 12 12 12 12 12 13 12 13 13 14 15 16 16 16 16 17 17 18 19 19 20 21 22 23 24 25 27 28 29 30
17 16 15 15 15 15 14 13 13 13 13 12 12 12 12 13 13 13 14 14 14 14 14 15 15 15 15 16 17 18 19 19 20 21 21 22 23 24 25 26 28 29 29
18 17 17 17 16 15 15 14 14 13 13 13 14 14 14 14 14 15 15 15 15 15 15 15 15 16 16 18 18 19 20 20 21 22 22 22 23 24 25 27 27 28 29
19 18 18 17 17 16 16 16 15 15 15 15 15 15 15 15 15 16 15 15 16 16 16 16 16 17 17 17 18 19 20 20 21 21 21 22 23 24 24 25 26 28 29
21 20 19 19 18 17 17 17 16 16 16 16 16 16 16 16 16 15 15 15 16 16 17 17 17 18 17 18 19 20 20 21 21 21 22 22 23 23 25 26 27 28 29
21 21 20 20 19 18 18 17 17 17 17 16 16 17 16 16 15 15 16 16 16 17 16 16 16 17 17 18 19 20 20 21 21 22 22 23 24 25 26 27 28 30 31
20 21 21 21 22 20 19 18 19 19 18 17 17 17 16 16 16 16 16 17 17 17 17 17 17 17 18 18 19 20 21 22 22 23 24 25 26 27 28 29 31 33 35
20 19 19 20 19 19 18 18 19 19 19 19 19 18 17 17 16 17 17 17 17 17 17 17 18 18 19 19 20 21 22 23 24 25 26 27 28 29 31 32 34 36 37